Wind_Speed
26 31 28 27 25 24 24 25 24 23 22 21 21 21 21 22 21 20 20 21 21 19 21 21 23 23 24 25 25 24 23 22 23 22 23 26 29 28 28 27 24 23 21
37 33 30 28 26 26 25 26 27 25 24 22 22 23 22 21 19 18 17 20 18 20 21 20 21 21 22 23 22 22 23 24 24 23 27 29 27 25 25 23 20 20 19
40 35 31 29 27 26 25 26 27 27 26 24 24 22 22 20 18 19 16 19 20 20 18 21 21 20 21 21 21 22 24 25 26 27 28 28 25 22 21 21 20 18 19
39 36 32 29 28 26 26 26 26 26 26 24 24 23 19 18 20 19 17 18 17 16 18 20 19 20 20 20 20 21 23 22 23 25 27 24 20 19 19 18 17 17 18
38 37 33 29 27 26 27 26 25 23 24 24 22 19 18 19 19 21 20 18 19 19 18 18 19 19 21 20 22 21 21 24 24 24 23 20 18 17 16 17 18 17 19
39 37 34 31 28 28 27 27 24 23 24 23 22 21 19 17 20 21 23 24 25 22 19 20 20 21 22 22 21 21 23 22 22 22 21 20 18 16 17 18 18 19 18
39 37 34 31 29 29 28 27 24 24 24 23 23 22 20 18 21 22 24 24 24 21 20 22 23 23 24 21 20 20 22 23 23 24 21 19 17 17 16 17 17 15 15
34 37 35 32 29 29 29 28 25 24 24 24 24 21 20 19 20 21 21 19 24 21 21 23 22 23 20 19 18 18 20 24 24 22 20 18 15 16 15 15 15 17 19
33 36 34 32 30 29 28 28 27 25 25 22 21 20 21 21 22 20 20 17 23 22 20 22 23 23 21 17 17 16 16 17 21 19 17 15 14 15 15 16 13 15 18
33 33 33 33 31 29 28 27 27 25 25 23 20 20 22 22 22 20 20 18 20 22 19 20 18 18 16 15 13 11 11 13 15 17 19 16 14 14 14 15 13 13 15
27 27 30 33 32 29 28 26 25 26 25 22 20 20 23 22 21 22 19 18 18 18 18 16 16 15 15 15 14 12 9 10 13 17 17 14 12 14 14 15 13 12 13
29 28 30 32 32 30 29 27 26 26 26 23 21 20 21 21 20 23 18 17 17 15 18 17 17 17 16 15 12 13 15 14 14 15 11 12 11 12 12 13 13 13 12
30 29 29 31 33 32 31 28 26 28 28 24 21 19 20 22 22 21 19 18 18 14 22 19 17 14 14 13 13 14 13 11 10 13 12 12 13 12 12 12 12 13 12
27 28 28 29 33 32 31 29 28 27 28 25 22 19 19 22 23 22 20 20 16 17 23 21 17 14 13 14 13 14 12 12 13 13 12 9 12 10 12 11 12 11 11
30 30 28 30 34 33 32 29 28 27 28 26 23 19 17 21 23 22 20 21 18 19 20 18 17 13 12 13 13 13 13 13 11 12 12 9 12 10 9 10 10 10 10
28 29 30 33 34 32 32 30 28 28 27 26 24 20 17 19 19 21 20 20 18 18 16 17 16 13 12 12 13 12 13 13 12 9 8 7 9 4 11 11 9 9 11
27 30 35 34 33 32 31 30 28 28 28 27 25 22 19 18 17 18 19 19 18 16 16 19 16 13 12 11 12 13 12 13 8 8 9 7 6 4 7 5 6 6 8
28 31 35 34 34 33 32 31 29 28 29 28 26 23 21 19 17 16 17 19 20 17 18 21 15 11 12 11 14 13 11 9 5 7 6 5 5 5 5 6 7 5 7
35 34 36 35 34 34 32 31 29 28 29 29 28 25 23 20 18 17 16 18 20 20 22 19 14 9 12 13 15 14 10 5 6 5 4 3 2 1 2 1 3 4 2
30 33 35 32 30 30 31 31 29 28 29 29 29 27 24 22 21 20 17 18 22 23 23 22 16 9 12 15 14 13 10 9 5 4 4 2 1 2 2 3 4 0 1
20 24 26 28 26 25 25 25 23 26 27 27 28 28 26 25 23 21 19 20 22 25 25 22 18 11 15 15 14 8 6 8 8 8 7 5 4 4 4 5 6 4 3
15 17 20 21 22 22 22 24 22 25 23 23 24 26 26 26 24 24 23 22 23 25 25 25 23 16 12 18 7 6 1 3 8 10 10 9 8 8 8 9 7 6 6
16 14 14 14 19 19 19 20 17 20 15 21 22 23 24 27 25 23 25 25 26 26 26 26 26 22 17 21 15 6 2 4 1 8 12 13 12 12 12 12 11 9 8
16 14 14 13 13 15 17 17 19 19 15 15 19 17 19 22 25 23 23 26 24 27 27 27 26 27 23 21 18 12 6 5 3 1 8 15 16 16 16 16 14 11 10
16 16 15 14 13 9 12 14 15 15 15 19 20 21 21 19 20 22 24 25 27 29 28 28 28 29 27 23 27 16 8 7 5 3 2 3 16 21 19 20 18 17 13
18 17 15 14 14 11 9 9 12 14 14 14 14 17 20 20 22 24 26 27 27 27 28 30 30 28 29 26 25 27 22 10 10 5 2 5 6 6 16 21 21 21 19
Wind_Direction
166 158 154 143 141 135 131 126 129 125 122 119 118 115 112 105 102 102 105 111 103 105 104 99 93 91 86 87 87 88 88 87 88 97 93 88 82 77 75 76 72 73 64
160 158 155 147 143 137 134 132 128 125 121 121 122 121 115 108 104 108 103 119 106 99 97 100 98 96 93 90 89 89 87 88 96 96 94 84 81 74 71 80 79 72 69
156 159 157 149 145 139 138 136 131 128 127 122 123 119 115 105 106 110 107 105 110 107 102 103 103 98 95 92 87 90 92 97 98 94 85 80 75 72 73 76 76 73 72
156 159 158 153 148 144 141 136 135 134 133 126 123 118 111 109 115 113 113 112 118 109 111 104 105 103 96 93 93 99 103 104 98 92 87 80 76 75 73 77 76 75 75
157 161 158 155 149 146 141 138 135 136 137 128 124 125 122 122 116 112 116 112 110 111 113 111 110 106 104 103 101 100 114 106 100 91 84 80 79 75 75 75 74 77 79
160 163 159 157 152 149 143 145 141 138 136 138 133 134 132 124 122 119 118 113 117 114 112 115 113 110 107 103 102 101 111 108 102 92 86 82 75 76 76 78 77 85 80
160 163 161 159 157 155 147 149 147 142 142 143 142 135 129 122 119 124 118 117 117 114 111 117 116 117 113 103 99 103 115 112 100 94 84 73 80 77 76 79 83 77 73
160 162 163 163 161 159 154 153 152 146 142 142 142 138 135 130 121 124 120 113 130 118 110 115 117 115 110 106 98 102 116 110 99 88 83 80 77 79 76 73 84 71 70
164 163 166 166 164 163 159 158 155 151 144 138 143 145 144 142 135 139 118 119 136 124 113 122 123 114 108 109 102 95 104 100 94 86 73 87 84 82 79 75 86 82 67
166 166 168 169 167 165 163 161 159 156 148 145 139 144 148 146 137 136 134 125 138 134 123 118 118 112 113 116 111 88 97 92 90 83 86 86 87 81 80 77 81 83 79
162 163 168 170 169 166 163 163 162 160 155 150 141 142 149 150 148 137 133 141 129 141 133 129 120 127 128 125 112 89 92 102 96 90 90 74 87 85 81 76 82 81 76
164 167 167 169 170 165 165 164 163 163 163 157 150 146 151 152 147 149 139 143 137 138 145 136 127 126 128 122 111 90 92 99 100 93 81 89 87 82 83 79 77 76 70
168 166 168 166 170 169 167 167 165 168 168 164 157 150 154 156 152 152 148 151 148 144 153 145 134 138 141 136 119 106 102 94 101 95 85 93 90 87 83 79 75 74 69
167 170 168 168 171 172 169 169 169 172 173 171 165 158 156 162 161 159 157 158 151 155 152 149 142 133 131 138 126 120 105 93 107 103 97 89 97 82 83 77 74 71 69
171 173 171 172 175 174 171 173 172 176 177 176 171 167 163 164 166 166 164 163 160 153 163 158 160 136 135 146 141 126 109 101 106 107 102 83 100 79 77 82 73 70 63
169 171 175 179 179 177 177 177 178 180 180 180 177 175 170 162 166 172 169 169 167 166 165 169 162 150 132 149 149 138 119 110 108 102 105 94 75 80 82 77 79 66 63
170 171 178 183 183 182 183 184 184 184 183 184 182 182 178 172 167 171 175 173 171 171 177 177 159 154 152 154 154 146 132 110 87 99 100 101 80 88 85 89 83 72 57
166 174 180 184 186 186 187 188 188 189 188 188 188 187 187 184 178 175 177 178 176 172 166 168 167 154 167 169 156 154 141 92 96 95 99 101 61 77 78 59 57 39 40
179 180 184 188 189 190 188 190 190 191 192 193 193 193 193 194 191 187 182 179 179 176 176 179 178 175 176 170 161 158 138 124 107 104 117 97 91 51 121 97 19 23 50
176 182 186 188 193 194 191 192 193 193 197 197 198 200 198 200 203 196 189 182 183 184 184 188 193 191 181 176 170 166 160 159 150 180 161 182 279 253 248 296 322 12 112
160 177 182 186 187 188 188 183 186 190 199 202 204 205 205 209 209 207 199 191 189 190 192 192 193 191 177 180 170 169 179 187 191 193 190 220 222 242 255 270 297 266 254
128 149 166 174 178 185 190 192 189 192 201 206 208 210 211 212 215 214 208 201 196 195 197 198 198 190 180 183 165 146 85 250 220 215 213 215 219 225 237 259 283 263 265
99 111 137 161 179 182 184 183 184 191 192 198 210 212 212 214 217 216 217 211 207 203 202 203 203 204 192 189 187 163 109 220 215 227 224 222 228 227 243 249 266 267 266
73 94 110 124 153 172 182 189 194 193 200 207 210 223 218 215 216 223 221 221 219 215 212 211 210 209 212 200 205 212 198 162 166 308 242 239 238 239 241 246 255 266 265
71 80 93 103 109 136 178 194 197 200 206 208 213 211 224 220 221 221 224 226 226 223 223 219 215 214 215 217 208 203 199 184 181 158 231 272 243 247 250 249 250 251 258
62 70 81 88 88 98 122 166 195 208 217 219 221 222 222 220 223 223 223 226 231 231 232 227 227 221 221 223 227 221 220 205 205 184 181 227 241 285 260 255 256 254 252
Height
788 793 797 800 804 806 809 810 814 816 819 821 824 826 827 828 829 831 833 834 835 836 837 838 839 840 841 842 842 844 845 845 844 847 847 847 846 847 848 849 849 849 850
784 792 796 800 804 807 810 812 814 817 820 823 825 828 829 830 832 834 835 836 838 839 840 841 842 844 845 846 847 847 847 847 850 851 850 850 850 851 852 853 855 855 854
784 792 797 800 804 808 811 813 815 819 821 824 827 829 831 833 834 836 838 839 840 842 843 844 846 847 848 849 849 850 851 853 854 854 853 854 855 857 858 858 858 858 857
785 791 796 800 804 808 812 814 817 820 823 825 828 831 833 835 837 839 840 841 843 844 846 847 848 850 851 851 853 854 855 857 857 857 857 858 860 861 862 862 861 861 859
785 791 796 801 805 809 813 816 819 822 825 827 830 833 836 838 839 841 843 844 846 847 849 850 851 852 854 855 856 857 858 859 860 861 862 863 864 865 865 865 864 863 863
785 791 797 801 806 810 813 818 821 824 827 829 832 835 838 839 841 843 844 846 848 850 851 852 854 855 857 859 860 861 862 863 863 864 866 867 868 869 868 868 867 866 866
785 791 797 802 807 811 814 819 822 825 829 831 834 837 840 841 843 845 847 849 851 852 854 855 857 858 860 862 863 864 865 866 867 868 869 870 871 872 871 871 871 870 868
786 791 797 802 807 811 815 819 823 826 830 833 836 839 841 843 846 848 850 852 854 855 856 858 860 862 864 865 866 868 869 869 870 871 872 873 874 874 875 875 874 873 872
789 793 797 803 808 812 816 819 823 827 831 834 837 840 842 845 847 850 853 855 857 858 860 861 863 865 867 869 870 871 872 872 872 874 875 876 877 877 877 878 878 877 877
791 794 799 803 808 812 817 821 824 828 832 835 838 841 844 847 849 852 855 858 860 862 863 865 866 868 870 872 873 874 875 875 875 877 878 879 880 880 880 881 880 881 880
792 796 800 803 807 812 817 822 825 830 834 837 839 842 845 848 851 855 858 860 862 865 866 868 870 871 873 874 876 877 877 878 879 880 881 882 883 883 883 883 883 883 884
790 794 799 803 807 812 817 822 826 830 834 837 840 843 847 850 853 856 859 862 864 867 869 871 873 874 875 876 878 879 880 881 882 883 884 885 885 886 886 886 886 887 887
788 793 797 802 806 811 816 822 826 830 834 838 841 845 848 851 855 858 860 863 866 868 870 873 875 876 878 879 881 882 883 884 885 885 887 888 888 889 889 889 889 889 890
787 793 797 801 805 811 816 821 826 830 834 838 842 845 848 851 855 858 861 864 867 869 872 874 877 878 880 881 883 884 885 886 887 888 889 890 890 891 891 892 892 892 893
785 791 796 801 805 810 816 821 826 830 834 839 842 846 848 851 855 858 861 865 867 870 873 876 878 880 881 883 885 886 887 888 889 891 891 892 893 894 894 894 895 895 895
783 788 795 800 805 810 814 819 825 830 834 839 842 846 849 852 854 858 861 865 868 871 874 877 879 881 883 884 886 888 889 891 892 893 894 895 895 895 896 897 897 897 897
781 787 793 800 805 810 814 819 824 829 834 838 842 846 849 852 855 858 861 865 868 871 874 877 880 882 884 886 888 890 892 893 895 896 897 898 899 898 899 899 899 899 900
780 787 793 799 804 809 813 818 822 827 832 837 841 845 849 852 855 858 861 865 868 872 874 877 880 883 885 887 889 891 893 895 897 898 899 900 900 900 901 901 901 901 901
778 785 791 797 802 807 811 816 820 825 830 835 840 844 847 851 854 857 860 864 868 872 875 878 881 884 885 888 890 892 894 897 898 899 901 901 902 902 903 903 903 903 903
778 784 789 795 800 805 810 815 819 824 828 833 838 842 846 850 853 856 860 863 867 871 874 877 881 884 886 889 891 893 894 896 898 899 900 902 902 903 904 904 904 904 905
779 784 788 793 799 804 807 813 818 821 827 831 835 840 844 848 851 855 859 862 865 869 872 876 880 883 885 889 892 894 895 896 896 898 899 900 901 903 904 904 904 904 905
780 783 788 793 798 802 806 810 815 819 825 829 833 837 842 846 849 853 857 861 864 867 871 874 877 881 884 888 891 894 896 898 896 896 897 899 899 900 901 903 903 903 904
783 785 788 792 796 801 805 809 814 818 823 827 830 834 839 843 846 850 854 858 861 865 867 871 875 878 881 885 888 891 897 897 895 895 896 897 898 898 899 900 902 902 902
788 788 790 793 796 800 805 809 813 816 820 824 829 833 836 839 843 847 851 855 858 862 865 868 871 875 879 881 887 887 889 890 894 896 894 895 895 896 897 898 899 900 901
793 793 794 795 797 801 803 807 811 816 820 823 827 830 834 837 840 844 848 851 855 858 862 865 868 871 874 878 881 884 888 889 890 892 893 893 894 894 895 896 897 898 899
796 796 797 799 799 801 805 808 811 814 817 821 824 828 831 835 838 841 845 848 851 855 858 861 865 868 871 873 877 880 882 884 887 888 891 891 892 892 892 893 893 894 896